OneWeb SL0061

operational
NORAD ID: 45428 Int'l Des: 2020-020 Owner: ONEWEB Country: UK Constellation: oneweb
LEOCIRCULARPOLARONEWEB_TYPE

Über OneWeb SL0061

Beschreibung wird geladen...

Live-Position

3D-Globus wird geladen...

Nächste Überflüge

Höhenverlauf

Altitude vs Time

uPlot chart will show altitude changes over time

Zweizeiliger Elementsatz

1 45428U 20020E 25303.74420750 -.00000188 00000-0 -56662-3 0 9996
2 45428 87.8857 66.7352 0001569 102.3986 257.7318 13.11414552272558
Epoch: 30. Okt. 2025 • Age: 8 hours

Aktueller Status

Höhe 1226.3 km
Geschwindigkeit 7.25 km/s
Subsatellitenpunkt 57.47°N, 176.62°E
Startdatum 21. März 2020
Alter 5.6 years
Typ internet

Technische Details

Klassifizierung Payload
Masse 148.00 kg
Trockenmasse 140.00 kg
Gesamtmasse 148.00 kg
Länge 1.30 m
Durchmesser 1.00 m
Spannweite 5.00 m
Form Trapezoid+2 pan
Hersteller ONEWUS
Bus-Typ ARROW
Phasenstatus In Orbit
Besitzer/Staat ONEWEB/UK

Große Konstellationen

Loading constellations...